Theta_e
300 301 302 302 302 302 301 301 299 297 296 294 293 293 295 296 297 299 299 297 296 296 296 294 293 289 289 287 286 284 283 282 280 278 280 281 280 280 281 281 281 281 281
300 300 300 300 300 299 299 299 297 295 292 292 289 288 289 292 293 295 293 294 294 292 291 289 287 287 285 285 284 283 283 282 280 277 278 279 279 280 280 280 279 281 280
299 299 298 298 298 297 297 297 294 292 289 287 286 286 285 286 289 291 292 291 292 292 290 288 286 285 284 284 283 282 282 281 280 279 277 278 278 278 278 278 279 280 280
298 298 297 296 296 296 296 294 291 289 287 285 285 285 284 285 288 288 288 288 289 288 287 287 285 285 284 283 282 281 280 280 279 278 276 276 276 278 277 277 277 279 279
297 296 297 295 295 294 292 290 288 286 285 284 283 283 284 285 285 286 286 287 286 285 285 285 284 284 285 284 281 280 280 279 279 278 276 277 276 277 276 278 277 278 279
296 296 294 292 291 290 289 288 286 285 284 283 283 283 282 283 286 289 287 285 285 284 283 282 282 282 284 286 286 284 282 280 278 278 278 277 277 278 278 278 277 276 275
291 290 289 289 288 289 288 286 285 284 282 282 281 282 282 282 286 288 288 284 284 283 283 282 281 282 283 283 285 285 285 285 283 281 279 279 278 279 279 278 278 277 276
287 284 286 285 286 287 286 285 283 282 281 280 282 282 282 282 286 288 288 283 283 283 283 282 282 281 282 282 282 282 281 283 283 283 282 281 281 281 280 280 279 278 277
286 285 284 284 284 284 283 282 280 278 278 278 282 282 282 281 286 288 287 282 282 282 282 282 282 281 283 285 281 280 280 281 285 286 285 285 285 284 282 280 274 274 273
285 285 285 282 281 280 281 279 277 276 279 282 282 282 282 282 285 288 287 282 281 280 280 281 282 281 284 286 281 281 279 280 281 281 283 285 285 283 286 282 278 274 273
281 281 281 280 278 278 277 277 275 275 280 280 280 280 281 281 283 287 288 282 281 280 280 279 281 284 285 286 284 282 282 282 283 280 279 277 278 280 281 282 281 279 276
279 278 276 274 278 276 275 271 272 273 272 277 279 278 279 279 282 286 288 284 284 280 280 280 281 285 285 286 286 285 286 285 280 279 276 276 277 277 279 279 280 280 280
273 271 272 272 274 274 274 273 272 271 272 270 274 277 277 278 280 285 287 286 285 282 281 282 283 285 287 287 289 287 285 283 278 277 276 277 278 278 278 277 277 277 276
271 272 272 272 271 272 274 274 273 272 270 272 272 270 271 274 274 276 281 285 284 283 283 282 283 284 285 285 284 287 285 284 282 280 278 278 276 275 276 275 272 272 268
276 276 274 275 277 276 276 275 276 275 276 273 273 276 275 272 274 279 279 280 283 282 278 278 279 280 279 281 282 282 282 282 282 282 281 276 274 275 274 273 271 269 267
279 278 279 275 273 278 278 277 283 283 284 284 283 280 279 281 282 282 283 284 286 285 281 279 279 280 279 279 279 279 280 280 281 281 278 275 273 273 272 272 270 268 267
280 279 278 278 276 274 277 278 278 282 284 285 285 285 284 284 284 284 284 285 286 287 282 281 280 280 280 280 280 279 279 277 276 277 276 274 273 273 271 270 268 266 264
281 280 280 279 279 278 278 277 279 278 277 277 281 282 283 283 284 285 285 284 280 282 276 276 278 278 278 278 277 274 269 268 267 268 269 269 269 269 267 266 266 263 262
277 278 278 278 278 278 277 277 277 278 276 276 276 276 277 280 279 280 281 276 276 274 274 273 273 270 269 269 267 264 262 262 262 263 264 264 265 265 263 264 264 263 260
273 274 275 274 274 275 275 275 275 275 275 272 268 265 268 269 265 263 262 263 266 267 266 265 260 260 259 259 258 258 257 258 259 260 261 263 263 263 263 261 262 260 259
270 270 271 270 269 269 269 269 270 270 267 265 262 267 273 265 261 260 256 255 256 255 255 255 255 254 253 254 254 255 255 257 256 258 260 261 260 260 262 262 259 258 258
268 268 268 267 267 266 266 266 266 266 264 264 262 266 269 261 260 259 256 253 252 251 252 253 253 252 251 252 252 253 253 254 255 259 259 259 259 259 258 257 257 258 257
267 266 266 266 265 264 263 263 263 262 261 260 259 259 258 257 255 253 253 252 251 251 249 249 249 249 248 249 250 252 254 254 256 257 257 257 257 257 256 255 256 255 256
265 264 263 263 263 262 262 261 261 261 259 257 256 258 257 252 251 251 250 249 248 247 246 246 246 247 246 247 246 247 248 248 249 253 256 256 256 255 254 254 255 256 256
262 262 262 261 261 260 259 259 259 256 255 256 255 253 251 250 250 249 248 246 246 246 247 245 245 246 246 248 248 248 248 256 250 251 250 252 254 254 252 254 255 255 255
261 260 260 260 259 259 258 257 253 254 254 253 251 250 250 250 250 248 247 247 247 247 246 245 246 248 248 248 249 251 252 258 255 255 250 251 251 252 253 254 254 254 254
Wind_Speed
7 7 7 7 7 7 7 7 7 7 8 9 9 9 10 11 11 11 11 10 13 12 11 12 14 11 9 8 7 6 4 4 4 2 2 4 8 9 7 5 5 4 5
6 6 7 7 7 7 7 7 7 7 6 8 7 7 7 9 8 10 9 9 12 11 11 9 10 8 10 8 7 7 5 4 4 5 3 3 4 8 8 7 5 5 5
7 7 6 7 7 8 8 7 7 7 7 6 6 7 8 8 9 10 10 9 11 11 11 12 11 11 10 7 6 6 5 3 4 5 4 2 2 3 3 3 4 4 5
8 8 8 8 8 7 6 6 7 7 8 7 7 7 7 7 9 8 9 8 9 8 9 10 11 13 12 11 9 8 6 5 4 6 3 4 3 2 3 3 4 4 5
8 8 10 6 6 6 6 6 6 6 6 6 6 6 6 7 7 9 9 9 9 7 7 7 8 9 14 13 8 7 8 4 6 5 3 3 3 3 5 3 6 2 3
8 9 5 5 6 6 6 6 6 6 5 5 5 6 6 5 12 16 12 9 10 11 10 9 10 13 14 17 18 18 12 9 6 5 3 3 4 3 4 5 3 3 3
7 6 5 5 6 7 6 6 6 6 5 5 5 6 6 5 11 15 14 7 9 10 11 10 8 7 10 11 17 18 15 13 10 6 6 4 6 6 5 5 5 4 4
5 4 4 4 5 5 6 6 5 5 6 6 6 6 5 5 12 15 14 4 6 7 9 10 11 11 12 12 11 10 7 6 7 5 7 6 5 7 7 5 6 4 1
6 5 5 5 6 6 7 6 4 4 3 3 3 5 6 5 14 17 15 7 7 8 7 8 9 11 18 20 11 10 8 4 5 11 9 10 11 11 9 4 3 3 3
7 6 4 3 3 4 4 5 3 3 4 4 4 5 6 5 14 17 15 5 6 5 4 6 11 9 18 19 7 10 9 9 8 4 5 10 12 10 15 10 5 5 4
4 2 1 1 3 3 4 3 3 3 4 4 4 3 4 5 6 16 18 6 5 5 6 5 4 14 19 21 14 9 10 8 9 5 4 1 1 3 5 6 6 6 6
2 2 2 1 1 3 5 2 3 4 4 4 4 2 2 2 6 14 15 14 10 5 6 6 7 17 20 21 14 13 9 9 5 4 4 5 5 7 7 7 8 7 5
3 2 1 3 3 3 4 4 4 3 3 2 3 3 2 1 1 7 14 17 13 5 5 10 16 18 17 18 20 18 12 4 5 5 6 7 7 6 5 4 4 4 3
3 3 1 3 3 3 3 1 4 4 3 3 3 3 2 1 1 0 1 6 12 7 10 7 10 11 14 12 6 10 6 6 6 7 6 6 3 4 6 5 4 4 3
2 0 2 1 4 5 3 3 2 1 4 3 2 3 4 2 3 6 5 3 6 7 5 2 2 4 5 5 4 4 4 3 4 4 5 4 4 5 4 5 3 2 3
2 2 2 2 3 2 4 3 5 6 7 6 7 5 1 4 3 7 10 12 14 16 3 3 4 5 6 4 3 3 4 6 6 6 4 4 5 6 5 3 2 3 4
4 4 3 3 1 3 1 4 5 6 9 8 8 9 6 4 7 7 9 11 12 14 4 5 4 4 4 4 5 4 4 4 2 5 5 5 5 5 6 5 3 2 2
4 6 5 4 4 3 2 1 3 5 6 3 10 8 10 10 10 5 9 7 1 3 2 3 3 4 4 5 3 3 2 2 2 2 2 3 4 4 3 4 4 4 3
3 1 4 3 3 4 3 3 1 3 4 4 3 7 7 12 11 12 13 3 3 3 3 4 3 3 2 2 2 2 3 2 2 2 2 2 3 3 2 3 3 5 5
4 6 6 4 3 3 2 3 3 4 4 4 3 2 3 4 4 4 4 4 4 3 2 3 2 2 2 3 2 3 3 2 2 2 2 3 3 3 3 3 4 3 4
4 5 5 4 4 2 3 3 3 4 5 4 2 2 7 4 3 3 2 3 3 2 1 2 2 2 2 2 2 2 2 2 2 2 2 2 3 2 3 3 3 3 3
4 4 4 3 3 3 2 3 5 5 4 4 2 5 11 4 3 3 3 3 1 1 1 1 1 1 2 2 2 2 2 3 2 2 2 3 3 3 3 2 3 3 4
5 5 4 4 4 4 5 5 5 5 4 3 2 3 3 3 3 3 1 0 0 0 1 2 1 1 1 1 1 2 3 3 3 3 3 3 3 3 3 3 4 3 4
5 5 4 4 4 4 4 4 4 5 4 3 1 2 2 2 2 1 2 2 1 2 1 0 0 2 2 3 2 2 2 2 1 3 4 4 3 4 3 3 3 4 3
5 5 5 4 3 2 3 3 4 3 3 1 0 1 1 2 1 2 3 2 3 2 3 2 2 4 5 6 5 6 5 6 4 4 3 4 5 6 3 3 4 3 4
5 5 4 3 3 3 3 2 2 1 0 1 1 1 2 2 3 3 3 3 3 3 4 3 4 6 7 6 8 8 8 9 7 6 4 4 4 3 4 5 7 4 5
Wind_Direction
212 208 204 205 203 205 208 204 198 181 181 181 188 194 198 202 199 199 203 197 202 202 203 202 203 186 183 182 185 180 179 148 123 194 145 158 170 173 182 175 187 200 216
230 221 222 211 204 212 216 206 189 187 181 183 178 185 187 198 198 206 200 198 200 197 192 182 186 170 172 165 176 180 174 136 135 154 131 131 162 179 168 182 195 207 212
224 222 229 224 214 218 212 201 186 178 188 176 179 191 192 192 194 204 204 200 203 204 192 188 180 169 172 171 171 168 152 177 143 141 136 136 124 144 149 172 187 209 226
212 216 223 215 216 218 213 196 186 181 180 186 197 200 195 191 198 197 198 196 196 188 181 182 175 180 178 171 176 169 158 138 119 126 94 122 118 121 130 166 230 215 230
219 215 226 213 220 217 208 199 191 184 195 192 188 201 194 194 199 193 191 189 185 178 173 171 172 173 172 174 161 165 167 147 139 131 108 124 140 137 189 170 222 202 238
227 228 212 197 209 217 207 198 189 197 195 184 202 203 205 212 217 210 194 188 186 180 174 172 162 161 173 170 192 183 175 150 146 134 138 145 174 158 162 196 167 178 243
242 239 215 207 212 213 200 184 192 196 168 196 201 196 210 205 215 217 199 188 182 182 172 166 159 173 160 186 184 174 180 175 165 141 144 161 175 172 174 179 185 182 206
265 246 231 205 210 201 190 197 184 172 185 183 193 193 183 198 205 208 199 191 195 189 182 178 176 164 181 169 160 161 158 137 151 124 179 170 183 173 178 179 193 199 305
279 265 251 215 202 187 190 186 174 147 152 168 178 179 189 194 205 206 192 183 184 183 175 172 169 176 186 175 162 151 137 158 187 199 171 195 192 180 172 154 191 171 239
295 285 266 229 215 200 179 165 156 147 165 153 174 186 187 185 209 209 196 181 178 149 123 145 170 165 176 178 160 151 164 198 193 173 212 222 214 214 213 202 194 210 211
313 316 351 279 216 184 150 148 145 134 134 144 151 150 161 170 208 207 205 175 179 168 169 161 167 182 184 185 175 182 193 148 199 189 197 209 109 205 216 224 213 205 214
18 40 27 38 125 126 128 86 91 121 128 149 140 149 133 160 210 216 212 177 173 167 168 162 166 182 187 191 185 199 201 175 148 158 189 214 212 222 226 220 217 221 229
53 15 18 69 81 102 121 123 104 109 135 147 149 155 160 175 202 214 209 167 171 171 167 179 184 198 195 204 202 202 209 184 155 187 217 222 214 220 203 194 196 182 136
154 171 147 112 109 90 61 116 137 141 134 151 164 145 143 78 265 186 192 178 179 170 184 194 196 195 197 202 205 220 212 204 201 204 219 234 195 169 191 177 178 166 133
178 360 335 211 148 124 128 158 159 214 160 163 183 165 149 205 230 209 193 177 157 161 143 115 171 162 178 198 210 199 217 214 222 228 236 204 195 185 181 175 139 126 159
227 153 147 328 338 130 122 98 150 134 153 164 152 149 168 228 199 195 201 191 175 172 149 167 194 208 203 185 203 217 210 215 225 234 228 196 192 184 173 155 135 158 174
203 158 120 102 59 0 84 123 132 124 121 106 124 122 103 140 147 169 184 192 195 180 161 171 168 184 207 210 208 209 216 211 207 222 212 192 171 171 163 169 158 146 164
194 162 143 152 144 132 249 163 164 137 115 82 69 92 90 83 68 100 167 165 156 188 131 147 166 172 192 210 203 157 151 167 179 182 148 154 155 148 147 167 173 165 176
26 62 102 91 92 111 102 87 36 89 107 116 102 61 40 75 75 70 66 80 102 92 97 92 81 86 85 98 124 158 162 181 177 135 129 137 141 136 147 162 183 186 165
54 45 62 69 63 59 56 116 118 118 100 84 60 9 344 31 42 35 41 54 66 60 37 96 84 87 106 132 144 138 121 121 132 146 148 159 161 164 165 175 189 178 192
97 74 64 74 67 52 71 82 70 76 85 78 30 313 68 94 88 71 70 61 86 81 80 112 111 107 108 126 133 142 160 173 171 169 168 173 156 175 181 189 175 187 175
41 71 74 73 59 52 61 75 89 86 87 97 52 42 75 52 63 78 68 59 54 93 32 64 66 182 188 171 189 181 194 206 203 176 184 177 182 175 162 160 188 194 193
89 75 73 69 73 76 64 56 63 75 79 61 48 70 62 74 83 63 44 351 311 339 342 77 95 327 333 310 226 189 203 223 217 175 183 184 183 180 174 186 189 199 203
79 89 94 84 74 71 70 73 69 75 88 79 48 75 76 73 69 17 279 273 278 284 302 7 221 253 288 286 288 267 237 244 225 210 184 178 187 178 155 169 190 207 208
71 80 76 74 74 82 103 91 84 70 64 79 33 23 23 24 337 276 268 258 263 281 287 270 245 245 248 259 264 266 261 266 220 200 173 162 183 185 179 194 202 203 205
69 72 74 70 67 68 75 80 73 77 121 286 299 303 268 256 255 257 264 274 270 265 269 262 259 257 258 250 250 249 244 246 235 211 178 169 174 183 180 201 204 207 217